| time (UTC) | temp C | wind direction | speed KPH | gust KPH | rain 1hr cm | rain 24hr cm | rain mn cm | humidity % | barometer mb |
| 20260504081518 | 6 | 156 | 9.7 | 11.3 | 0.00 | 0.00 | 0.00 | 69 | 1014.0 |
| 20260504081013 | 4 | 113 | 3.2 | 6.4 | 0.00 | 0.00 | 0.00 | 83 | 1013.9 |
| 20260504080510 | 3 | 66 | 0.0 | 8.0 | 0.00 | 0.00 | 0.00 | 83 | 1013.9 |
| 20260504050328 | 0 | 46 | 3.2 | 3.2 | 0.00 | 0.00 | 0.00 | 93 | 1014.8 |
| 20260504045825 | 0 | 60 | 1.6 | 3.2 | 0.00 | 0.00 | 0.00 | 93 | 1014.8 |
| 20260504045320 | 0 | 56 | 0.0 | 3.2 | 0.00 | 0.00 | 0.00 | 92 | 1014.8 |
| 20260504044817 | 0 | 63 | 1.6 | 3.2 | 0.00 | 0.00 | 0.00 | 92 | 1014.5 |
| 20260504044315 | 0 | 67 | 0.0 | 3.2 | 0.00 | 0.00 | 0.00 | 91 | 1015.0 |
| 20260504043812 | 0 | 72 | 0.0 | 3.2 | 0.00 | 0.00 | 0.00 | 91 | 1014.8 |
| 20260504043308 | 0 | 63 | 1.6 | 3.2 | 0.00 | 0.00 | 0.00 | 91 | 1014.8 |
| 20260504042806 | 0 | 82 | 0.0 | 3.2 | 0.00 | 0.00 | 0.00 | 91 | 1014.5 |
| 20260504042304 | 0 | 44 | 0.0 | 3.2 | 0.00 | 0.00 | 0.00 | 91 | 1014.6 |
| 20260504041759 | 0 | 27 | 0.0 | 3.2 | 0.00 | 0.00 | 0.00 | 90 | 1014.8 |
| 20260504041255 | 0 | 63 | 1.6 | 3.2 | 0.00 | 0.00 | 0.00 | 90 | 1015.0 |
| 20260504040751 | 0 | 66 | 0.0 | 3.2 | 0.00 | 0.00 | 0.00 | 90 | 1014.7 |
| 20260504040249 | 0 | 87 | 1.6 | 3.2 | 0.00 | 0.00 | 0.00 | 90 | 1014.7 |
| 20260504035744 | 0 | 39 | 1.6 | 3.2 | 0.00 | 0.00 | 0.00 | 89 | 1014.7 |
| 20260504035242 | 0 | 20 | 0.0 | 3.2 | 0.00 | 0.00 | 0.00 | 89 | 1015.0 |
| 20260504034739 | 0 | 44 | 1.6 | 3.2 | 0.00 | 0.00 | 0.00 | 89 | 1015.0 |
| 20260504034237 | 0 | 45 | 1.6 | 3.2 | 0.00 | 0.00 | 0.00 | 89 | 1015.0 |
| 20260504033734 | 0 | 64 | 1.6 | 3.2 | 0.00 | 0.00 | 0.00 | 88 | 1015.1 |
| 20260504033231 | 0 | 49 | 3.2 | 3.2 | 0.00 | 0.00 | 0.00 | 88 | 1015.1 |
| 20260504032728 | 0 | 114 | 0.0 | 3.2 | 0.00 | 0.00 | 0.00 | 87 | 1015.0 |
| 20260504032225 | 0 | 60 | 0.0 | 3.2 | 0.00 | 0.00 | 0.00 | 86 | 1015.0 |
| 20260504031722 | 0 | 65 | 0.0 | 3.2 | 0.00 | 0.00 | 0.00 | 86 | 1015.2 |
| 20260504031219 | 1 | 44 | 0.0 | 3.2 | 0.00 | 0.00 | 0.00 | 87 | 1015.0 |
| 20260504030715 | 1 | 75 | 1.6 | 4.8 | 0.00 | 0.00 | 0.00 | 85 | 1015.1 |
| 20260504030213 | 1 | 66 | 0.0 | 3.2 | 0.00 | 0.00 | 0.00 | 85 | 1015.1 |
| 20260504025709 | 1 | 46 | 3.2 | 4.8 | 0.00 | 0.00 | 0.00 | 85 | 1014.7 |
| 20260504025205 | 1 | 54 | 1.6 | 3.2 | 0.00 | 0.00 | 0.00 | 84 | 1014.8 |
| 20260504024703 | 1 | 40 | 1.6 | 3.2 | 0.00 | 0.00 | 0.00 | 83 | 1014.6 |
| 20260504024159 | 1 | 36 | 3.2 | 3.2 | 0.00 | 0.00 | 0.00 | 85 | 1015.0 |
| 20260504023656 | 1 | 48 | 0.0 | 3.2 | 0.00 | 0.00 | 0.00 | 83 | 1015.0 |
| 20260504023152 | 1 | 27 | 0.0 | 3.2 | 0.00 | 0.00 | 0.00 | 83 | 1015.0 |
| 20260504022648 | 2 | 36 | 0.0 | 3.2 | 0.00 | 0.00 | 0.00 | 82 | 1014.6 |
| 20260504022144 | 2 | 67 | 1.6 | 3.2 | 0.00 | 0.00 | 0.00 | 80 | 1014.8 |
| 20260504021642 | 2 | 19 | 0.0 | 4.8 | 0.00 | 0.00 | 0.00 | 82 | 1014.7 |
| 20260504021138 | 2 | 32 | 3.2 | 3.2 | 0.00 | 0.00 | 0.00 | 79 | 1015.2 |
| 20260504020636 | 2 | 23 | 0.0 | 3.2 | 0.00 | 0.00 | 0.00 | 81 | 1014.8 |
| 20260504020132 | 3 | 76 | 1.6 | 3.2 | 0.00 | 0.00 | 0.00 | 80 | 1015.0 |
| 20260504015629 | 3 | 42 | 0.0 | 3.2 | 0.00 | 0.00 | 0.00 | 80 | 1014.8 |
| 20260504015125 | 3 | 47 | 0.0 | 3.2 | 0.00 | 0.00 | 0.00 | 78 | 1014.8 |
| 20260504014621 | 3 | 48 | 0.0 | 4.8 | 0.00 | 0.00 | 0.00 | 79 | 1014.8 |
| 20260504014118 | 3 | 85 | 1.6 | 3.2 | 0.00 | 0.00 | 0.00 | 77 | 1014.8 |
| 20260504013616 | 3 | 17 | 0.0 | 3.2 | 0.00 | 0.00 | 0.00 | 77 | 1014.7 |
| 20260504013112 | 3 | 44 | 0.0 | 4.8 | 0.00 | 0.00 | 0.00 | 77 | 1014.5 |
| 20260504012610 | 3 | 60 | 1.6 | 3.2 | 0.00 | 0.00 | 0.00 | 77 | 1014.6 |
| 20260504012108 | 3 | 13 | 0.0 | 3.2 | 0.00 | 0.00 | 0.00 | 76 | 1014.4 |
| 20260504011604 | 3 | 20 | 1.6 | 3.2 | 0.00 | 0.00 | 0.00 | 75 | 1014.7 |
| 20260504011100 | 3 | 41 | 1.6 | 3.2 | 0.00 | 0.00 | 0.00 | 74 | 1014.5 |
| 20260504010556 | 4 | 35 | 1.6 | 3.2 | 0.00 | 0.00 | 0.00 | 77 | 1014.4 |
| 20260504010052 | 4 | 51 | 0.0 | 3.2 | 0.00 | 0.00 | 0.00 | 75 | 1014.5 |
| 20260504005549 | 4 | 31 | 1.6 | 3.2 | 0.00 | 0.00 | 0.00 | 74 | 1014.5 |
| 20260504005046 | 4 | 60 | 0.0 | 4.8 | 0.00 | 0.00 | 0.00 | 71 | 1014.7 |
| 20260504004544 | 5 | 35 | 0.0 | 3.2 | 0.00 | 0.00 | 0.00 | 71 | 1014.6 |
| 20260504004041 | 5 | 55 | 0.0 | 3.2 | 0.00 | 0.00 | 0.00 | 70 | 1014.4 |
| 20260504003537 | 5 | 70 | 0.0 | 4.8 | 0.00 | 0.00 | 0.00 | 70 | 1014.3 |
| 20260504003034 | 5 | 35 | 0.0 | 3.2 | 0.00 | 0.00 | 0.00 | 70 | 1014.4 |
| 20260504002531 | 5 | 37 | 1.6 | 3.2 | 0.00 | 0.00 | 0.00 | 69 | 1014.4 |
| 20260504002028 | 5 | 24 | 3.2 | 3.2 | 0.00 | 0.00 | 0.00 | 67 | 1014.5 |
| 20260504001526 | 5 | 18 | 0.0 | 4.8 | 0.00 | 0.00 | 0.00 | 66 | 1014.3 |
| 20260504001022 | 6 | 33 | 1.6 | 4.8 | 0.00 | 0.00 | 0.00 | 64 | 1014.4 |
| 20260504000519 | 6 | 58 | 4.8 | 4.8 | 0.00 | 0.00 | 0.00 | 64 | 1014.3 |
| 20260504000017 | 7 | 337 | 1.6 | 3.2 | 0.00 | 0.00 | 0.00 | 62 | 1014.7 |
| 20260503235515 | 7 | 101 | 0.0 | 4.8 | 0.00 | 0.00 | 0.00 | 58 | 1014.4 |
| 20260503235012 | 7 | 103 | 0.0 | 3.2 | 0.00 | 0.00 | 0.00 | 61 | 1014.4 |
| 20260503234509 | 7 | 30 | 1.6 | 8.0 | 0.00 | 0.00 | 0.00 | 52 | 1014.5 |
| 20260503234008 | 8 | 119 | 3.2 | 4.8 | 0.00 | 0.00 | 0.00 | 56 | 1014.6 |
| 20260503233503 | 8 | 117 | 1.6 | 8.0 | 0.00 | 0.00 | 0.00 | 55 | 1014.4 |
| 20260503232959 | 8 | 129 | 3.2 | 6.4 | 0.00 | 0.00 | 0.00 | 51 | 1014.4 |
| 20260503232456 | 8 | 148 | 8.0 | 11.3 | 0.00 | 0.00 | 0.00 | 49 | 1014.5 |
| 20260503231954 | 8 | 117 | 4.8 | 8.0 | 0.00 | 0.00 | 0.00 | 48 | 1014.6 |
| 20260503231452 | 9 | 130 | 1.6 | 6.4 | 0.00 | 0.00 | 0.00 | 51 | 1014.4 |
| 20260503230948 | 9 | 154 | 0.0 | 14.5 | 0.00 | 0.00 | 0.00 | 48 | 1014.5 |
| 20260503230445 | 9 | 163 | 4.8 | 14.5 | 0.00 | 0.00 | 0.00 | 49 | 1014.4 |
| 20260503225942 | 9 | 162 | 1.6 | 6.4 | 0.00 | 0.00 | 0.00 | 47 | 1014.3 |
| 20260503225439 | 10 | 137 | 3.2 | 11.3 | 0.00 | 0.00 | 0.00 | 49 | 1014.4 |
| 20260503224934 | 10 | 158 | 3.2 | 8.0 | 0.00 | 0.00 | 0.00 | 49 | 1014.3 |
| 20260503224432 | 10 | 75 | 6.4 | 9.7 | 0.00 | 0.00 | 0.00 | 46 | 1014.4 |
| 20260503223929 | 10 | 139 | 11.3 | 12.9 | 0.00 | 0.00 | 0.00 | 48 | 1014.4 |
| 20260503223427 | 10 | 124 | 1.6 | 12.9 | 0.00 | 0.00 | 0.00 | 46 | 1014.1 |
| 20260503222922 | 10 | 138 | 3.2 | 9.7 | 0.00 | 0.00 | 0.00 | 46 | 1014.5 |
| 20260503222421 | 10 | 141 | 4.8 | 9.7 | 0.00 | 0.00 | 0.00 | 47 | 1014.4 |
| 20260503221919 | 10 | 88 | 3.2 | 4.8 | 0.00 | 0.00 | 0.00 | 47 | 1014.4 |
| 20260503221417 | 10 | 135 | 0.0 | 6.4 | 0.00 | 0.00 | 0.00 | 47 | 1014.4 |
| 20260503220913 | 10 | 53 | 0.0 | 9.7 | 0.00 | 0.00 | 0.00 | 44 | 1014.4 |
| 20260503220410 | 10 | 113 | 3.2 | 6.4 | 0.00 | 0.00 | 0.00 | 48 | 1014.3 |
| 20260503215907 | 10 | 152 | 11.3 | 17.7 | 0.00 | 0.00 | 0.00 | 42 | 1014.7 |
| 20260503215404 | 10 | 140 | 6.4 | 8.0 | 0.00 | 0.00 | 0.00 | 48 | 1014.5 |
| 20260503214901 | 10 | 74 | 3.2 | 8.0 | 0.00 | 0.00 | 0.00 | 44 | 1014.5 |
| 20260503214359 | 11 | 111 | 4.8 | 6.4 | 0.00 | 0.00 | 0.00 | 48 | 1014.4 |
| 20260503213856 | 10 | 124 | 3.2 | 16.1 | 0.00 | 0.00 | 0.00 | 47 | 1014.5 |
| 20260503213354 | 10 | 161 | 6.4 | 11.3 | 0.00 | 0.00 | 0.00 | 42 | 1014.5 |
| 20260503212850 | 11 | 141 | 3.2 | 8.0 | 0.00 | 0.00 | 0.00 | 44 | 1014.5 |
| 20260503212348 | 11 | 38 | 0.0 | 9.7 | 0.00 | 0.00 | 0.00 | 49 | 1014.5 |
| 20260503211845 | 11 | 135 | 1.6 | 9.7 | 0.00 | 0.00 | 0.00 | 46 | 1014.5 |
| 20260503211342 | 11 | 156 | 4.8 | 14.5 | 0.00 | 0.00 | 0.00 | 45 | 1014.3 |
| 20260503210837 | 11 | 20 | 3.2 | 11.3 | 0.00 | 0.00 | 0.00 | 49 | 1014.5 |
| 20260503210335 | 11 | 143 | 6.4 | 12.9 | 0.00 | 0.00 | 0.00 | 43 | 1014.6 |
| 20260503205829 | 11 | 148 | 1.6 | 11.3 | 0.00 | 0.00 | 0.00 | 40 | 1014.7 |
| 20260503205326 | 12 | 144 | 4.8 | 11.3 | 0.00 | 0.00 | 0.00 | 44 | 1014.7 |
| 20260503204823 | 12 | 138 | 6.4 | 12.9 | 0.00 | 0.00 | 0.00 | 44 | 1014.7 |
| 20260503204320 | 12 | 139 | 4.8 | 6.4 | 0.00 | 0.00 | 0.00 | 46 | 1014.5 |
| 20260503203817 | 12 | 36 | 3.2 | 8.0 | 0.00 | 0.00 | 0.00 | 49 | 1014.8 |
| 20260503203315 | 12 | 341 | 8.0 | 8.0 | 0.00 | 0.00 | 0.00 | 42 | 1014.7 |
| 20260503202812 | 12 | 139 | 4.8 | 11.3 | 0.00 | 0.00 | 0.00 | 45 | 1014.6 |
| 20260503202310 | 12 | 148 | 4.8 | 17.7 | 0.00 | 0.00 | 0.00 | 47 | 1014.8 |
| 20260503201808 | 12 | 137 | 4.8 | 9.7 | 0.00 | 0.00 | 0.00 | 47 | 1015.0 |
| 20260503201304 | 12 | 147 | 9.7 | 9.7 | 0.00 | 0.00 | 0.00 | 46 | 1015.0 |
| 20260503200802 | 12 | 155 | 11.3 | 16.1 | 0.00 | 0.00 | 0.00 | 46 | 1015.0 |
| 20260503200257 | 12 | 147 | 8.0 | 17.7 | 0.00 | 0.00 | 0.00 | 44 | 1015.1 |
| 20260503195749 | 13 | 147 | 6.4 | 17.7 | 0.00 | 0.00 | 0.00 | 47 | 1015.3 |
| 20260503195245 | 12 | 146 | 3.2 | 11.3 | 0.00 | 0.00 | 0.00 | 43 | 1015.2 |
| 20260503194743 | 13 | 162 | 3.2 | 11.3 | 0.00 | 0.00 | 0.00 | 38 | 1015.2 |
| 20260503194238 | 12 | 64 | 4.8 | 12.9 | 0.00 | 0.00 | 0.00 | 41 | 1015.1 |
| 20260503193735 | 12 | 214 | 1.6 | 8.0 | 0.00 | 0.00 | 0.00 | 53 | 1015.5 |
| 20260503193231 | 12 | 9 | 4.8 | 8.0 | 0.00 | 0.00 | 0.00 | 42 | 1015.6 |
| 20260503192727 | 12 | 323 | 1.6 | 16.1 | 0.00 | 0.00 | 0.00 | 43 | 1015.4 |
| 20260503192222 | 11 | 349 | 3.2 | 14.5 | 0.00 | 0.00 | 0.00 | 52 | 1015.5 |
| 20260503191719 | 11 | 120 | 3.2 | 14.5 | 0.00 | 0.00 | 0.00 | 45 | 1015.5 |
| 20260503191216 | 11 | 155 | 4.8 | 22.5 | 0.00 | 0.00 | 0.00 | 48 | 1015.6 |
| 20260503190713 | 11 | 142 | 6.4 | 11.3 | 0.00 | 0.00 | 0.00 | 46 | 1015.7 |
| 20260503190209 | 10 | 140 | 4.8 | 9.7 | 0.00 | 0.00 | 0.00 | 52 | 1015.7 |
| 20260503185707 | 11 | 31 | 4.8 | 11.3 | 0.00 | 0.00 | 0.00 | 50 | 1015.8 |
| 20260503185202 | 11 | 150 | 3.2 | 17.7 | 0.00 | 0.00 | 0.00 | 55 | 1015.7 |
| 20260503184657 | 12 | 14 | 11.3 | 14.5 | 0.00 | 0.00 | 0.00 | 50 | 1015.7 |
| 20260503184154 | 11 | 54 | 4.8 | 12.9 | 0.00 | 0.00 | 0.00 | 55 | 1015.9 |
| 20260503183650 | 10 | 176 | 4.8 | 14.5 | 0.00 | 0.00 | 0.00 | 50 | 1015.9 |
| 20260503183147 | 12 | 55 | 8.0 | 17.7 | 0.00 | 0.00 | 0.00 | 44 | 1015.8 |
| 20260503182645 | 12 | 29 | 8.0 | 11.3 | 0.00 | 0.00 | 0.00 | 41 | 1015.9 |
| 20260503182144 | 12 | 37 | 3.2 | 6.4 | 0.00 | 0.00 | 0.00 | 53 | 1016.0 |
| 20260503181640 | 11 | 144 | 4.8 | 8.0 | 0.00 | 0.00 | 0.00 | 47 | 1015.8 |
| 20260503181137 | 11 | 136 | 6.4 | 19.3 | 0.00 | 0.00 | 0.00 | 49 | 1016.1 |
| 20260503180634 | 10 | 131 | 6.4 | 12.9 | 0.00 | 0.00 | 0.00 | 52 | 1015.9 |
| 20260503180132 | 10 | 148 | 3.2 | 19.3 | 0.00 | 0.00 | 0.00 | 52 | 1016.0 |
| 20260503175629 | 11 | 129 | 4.8 | 9.7 | 0.00 | 0.00 | 0.00 | 45 | 1016.1 |
| 20260503175126 | 11 | 138 | 3.2 | 14.5 | 0.00 | 0.00 | 0.00 | 44 | 1016.0 |
| 20260503174622 | 11 | 93 | 4.8 | 24.1 | 0.00 | 0.00 | 0.00 | 52 | 1016.0 |
| 20260503174120 | 11 | 144 | 11.3 | 14.5 | 0.00 | 0.00 | 0.00 | 50 | 1016.0 |
| 20260503173614 | 10 | 1 | 11.3 | 19.3 | 0.00 | 0.00 | 0.00 | 47 | 1016.1 |
| 20260503173111 | 11 | 161 | 4.8 | 14.5 | 0.00 | 0.00 | 0.00 | 49 | 1016.5 |
| 20260503172608 | 10 | 57 | 4.8 | 14.5 | 0.00 | 0.00 | 0.00 | 47 | 1016.4 |
| 20260503172106 | 10 | 99 | 3.2 | 8.0 | 0.00 | 0.00 | 0.00 | 54 | 1016.4 |
| 20260503171601 | 9 | 357 | 0.0 | 11.3 | 0.00 | 0.00 | 0.00 | 50 | 1016.5 |
| 20260503171059 | 10 | 59 | 1.6 | 19.3 | 0.00 | 0.00 | 0.00 | 55 | 1016.5 |
| 20260503170555 | 9 | 153 | 8.0 | 19.3 | 0.00 | 0.00 | 0.00 | 55 | 1016.6 |
| 20260503150948 | 7 | 23 | 3.2 | 12.9 | 0.00 | 0.00 | 0.00 | 63 | 1016.9 |
| 20260503150439 | 8 | 107 | 4.8 | 9.7 | 0.00 | 0.00 | 0.00 | 53 | 1016.8 |
| 20260503131326 | 3 | 122 | 3.2 | 8.0 | 0.00 | 0.00 | 0.00 | 75 | 1016.6 |
| 20260503130824 | 4 | 131 | 4.8 | 9.7 | 0.00 | 0.00 | 0.00 | 74 | 1016.9 |
| 20260503130321 | 4 | 119 | 4.8 | 9.7 | 0.00 | 0.00 | 0.00 | 79 | 1016.7 |
| 20260503110702 | -1 | 133 | 4.8 | 4.8 | 0.00 | 0.00 | 0.00 | 96 | 1015.4 |
| 20260503110159 | -1 | 122 | 3.2 | 4.8 | 0.00 | 0.00 | 0.00 | 96 | 1015.6 |
| 20260503100126 | -1 | 170 | 0.0 | 6.4 | 0.00 | 0.00 | 0.00 | 95 | 1014.4 |